Location: Lussas
(44.6119°N, 4.4726°E)
Time: 05:50:48
(UTC+00:00)

Cosmos 1943 - Pass Details

Date: 26 November 2020
Orbit: 832 x 851 km, 71.0° (Epoch: 18 January)

Event Time Altitude Azimuth Distance (km) Brightness Sun altitude
Exits shadow 04:17:28 39° 356° (N) 1,258 4.0 -27.2°
Maximum altitude 04:19:31 65° 61° (ENE) 937 3.5 -26.8°
Drops below altitude 10° 04:25:10 10° 144° (SE) 2,471 6.1 -25.8°
Sets 04:27:38 0° 147° (SSE) 3,402 6.9 -25.4°
